Карточка аэропорта USTR

Внимание!
Информация на этой странице в стадии наполнения.
Если вы не увидели какой-то информации, или заметили неточность - пожалуйста сообщите нам!
Спасибо!
Команда RU-STAFF
Название аэропортаРощино
Название аэропорта (англ.)Roshschino
Превышение378 ft. (115.2 m.)
Координаты57°10.098', 65°19.002'
Высота перехода3000ft
Эшелон переходаQNH⩾1013hPa:FL040; QNH⩾977hPa:FL050; QNH⩽977hPa:FL060
Коды ответчика5101-5137
Зона ОрВДТюмень РПИ (USTV)
Данные METARUSTR 150300Z 17003MPS CAVOK 01/M06 Q1017 R30/090065 R03/090065 NOSIG
Проноз погоды (TAF)USTR 150133Z 1503/1603 16003G08MPS 9999 SCT020 BECMG 1514/1515 14005G12MPS
NOTAMshow/hide NOTAM
AWOS   TABLE

Информация о ВПП

ВПП Длина ВПП (м.) Покрытие Курс ВПП Частота ILS
033003Асфальтобетон34108.3
213003Асфальтобетон214110.7
122704Асфальтобетон121 
302704Асфальтобетон301 

Диспетчерские позиции

Позывной Наименование органа УВД Частота
USTR_TWRТюмень-Старт118.200
USTR_GNDТюмень-Руление119.000
USTR_R_APPТюмень-Круг126.100



Спутниковое изображение